UAL1 KMKE-KDEN

Flight info

Callsign UAL1
Flight time N/A
Altitude 36000
Route GREAS JAYEX MCW ONL PORDR AALLE4
Aircraft B752/M-SDE2E3FGHIJ3J4J7RWXY/LB1

Departure

Time 2026-04-29 01:46
Airport General Mitchell International Airport (KMKE)

Arrival

Time N/A
Airport Denver International Airport (KDEN)
Time Latitude Longitude Altitude Speed Heading
2026-04-29 01:33 42.94989 -87.90036 677 ft 0 kts 310°
2026-04-29 01:35 42.94988 -87.90035 677 ft 1 kts 310°
2026-04-29 01:35 42.94979 -87.90020 677 ft 2 kts 310°
2026-04-29 01:35 42.94969 -87.90005 677 ft 2 kts 309°
2026-04-29 01:35 42.94958 -87.89997 677 ft 1 kts 12°
2026-04-29 01:36 42.94951 -87.90002 677 ft 0 kts 42°
2026-04-29 01:36 42.94946 -87.90008 677 ft 0 kts 41°
2026-04-29 01:38 42.94954 -87.89998 677 ft 0 kts 42°
2026-04-29 01:38 42.94957 -87.89995 677 ft 1 kts 42°
2026-04-29 01:38 42.94958 -87.89993 677 ft 0 kts 42°
2026-04-29 01:38 42.94960 -87.89988 677 ft 3 kts 59°
2026-04-29 01:39 42.94971 -87.89938 677 ft 0 kts 79°
2026-04-29 01:40 42.94974 -87.89919 677 ft 4 kts 77°
2026-04-29 01:40 42.94985 -87.89834 677 ft 9 kts 84°
2026-04-29 01:40 42.94974 -87.89772 676 ft 3 kts 114°
2026-04-29 01:40 42.94972 -87.89718 675 ft 7 kts 90°
2026-04-29 01:41 42.94967 -87.89645 674 ft 7 kts 106°
2026-04-29 01:41 42.94943 -87.89609 675 ft 4 kts 158°
2026-04-29 01:41 42.94906 -87.89601 676 ft 13 kts 179°
2026-04-29 01:41 42.94803 -87.89540 677 ft 23 kts 155°
2026-04-29 01:42 42.94629 -87.89333 677 ft 31 kts 77°
2026-04-29 01:42 42.94667 -87.89132 677 ft 22 kts 72°
2026-04-29 01:42 42.94711 -87.88944 677 ft 15 kts 84°
2026-04-29 01:42 42.94697 -87.88902 677 ft 2 kts 138°
2026-04-29 01:43 42.94648 -87.88868 677 ft 8 kts 181°
2026-04-29 01:43 42.94625 -87.88905 677 ft 9 kts 298°
2026-04-29 01:43 42.94661 -87.88930 677 ft 0 kts 19°
2026-04-29 01:43 42.94678 -87.88924 677 ft 8 kts
2026-04-29 01:44 42.94700 -87.88907 677 ft 0 kts 117°
2026-04-29 01:44 42.94699 -87.88905 677 ft 0 kts 121°
2026-04-29 01:44 42.94698 -87.88903 677 ft 0 kts 128°
2026-04-29 01:45 42.94680 -87.88884 677 ft 9 kts 146°
2026-04-29 01:45 42.94618 -87.88899 677 ft 4 kts 232°
2026-04-29 01:45 42.94602 -87.88938 677 ft 5 kts 250°
2026-04-29 01:45 42.94515 -87.89288 677 ft 89 kts 252°
2026-04-29 01:46 42.94230 -87.90466 905 ft 161 kts 249°
2026-04-29 01:46 42.93872 -87.91999 1766 ft 188 kts 249°
2026-04-29 01:46 42.93500 -87.93659 2749 ft 187 kts 248°
2026-04-29 01:46 42.93056 -87.95461 3142 ft 212 kts 248°
2026-04-29 01:47 42.92584 -87.97433 3771 ft 228 kts 253°
2026-04-29 01:47 42.92470 -87.99685 4418 ft 247 kts 269°
2026-04-29 01:47 42.92565 -88.02039 5383 ft 251 kts 270°
2026-04-29 01:47 42.92608 -88.04358 6434 ft 249 kts 268°
2026-04-29 01:48 42.92636 -88.06708 7333 ft 254 kts 269°
2026-04-29 01:48 42.92673 -88.09111 8256 ft 257 kts 270°
2026-04-29 01:48 42.92713 -88.11545 9160 ft 262 kts 271°
2026-04-29 01:48 42.92755 -88.14024 10053 ft 266 kts 271°
2026-04-29 01:49 42.92798 -88.16541 10833 ft 274 kts 272°
2026-04-29 01:49 42.92844 -88.19230 11293 ft 294 kts 272°
2026-04-29 01:49 42.92894 -88.22105 11746 ft 313 kts 272°
2026-04-29 01:49 42.92945 -88.25152 12229 ft 330 kts 272°
2026-04-29 01:50 42.92998 -88.28313 13168 ft 333 kts 272°
2026-04-29 01:50 42.93049 -88.31428 14051 ft 335 kts 272°
2026-04-29 01:50 42.93099 -88.34602 14974 ft 336 kts 273°
2026-04-29 01:50 42.93150 -88.37800 15847 ft 338 kts 273°
2026-04-29 01:51 42.93198 -88.40968 16691 ft 339 kts 274°
2026-04-29 01:51 42.93247 -88.44171 17524 ft 340 kts 274°
2026-04-29 01:51 42.93295 -88.47443 18330 ft 342 kts 274°
2026-04-29 01:51 42.93343 -88.50670 18955 ft 347 kts 274°
2026-04-29 01:52 42.93392 -88.53999 19683 ft 350 kts 274°
2026-04-29 01:52 42.93412 -88.54951 19899 ft 351 kts 274°